Zurück zum Katalog

STARLINK-2695

AktivKommunikationVLEO
NORAD 48644·PAYLOAD·🇺🇸 United States

Gestartet May 26, 2021 von Cape Canaveral Space Force Station

Loading…

Nächste Überflüge (nächste 24 Stunden)

TLE

AktuellSource: CelesTrak SupGP

Epoche: Sep 14, 2026, 13:21 UTC

1 48644C 21044G   26257.55673611  .00034565  00000+0  11116-2 0  2574
2 48644  53.1582 315.1048 0001327  71.8321  34.9132 15.31680674    13

Verfolge STARLINK-2695 in Echtzeit mit AllMySat

Download on the App Store